Wind_Speed
26 26 27 27 27 27 26 27 27 27 27 28 28 28 28 28 27 27 28 28 29 28 29 30 30 29 29 29 29 29 29 30 30 30 30 30 30 30
27 27 27 27 28 27 26 26 26 26 25 25 26 27 27 27 28 28 28 28 28 29 29 29 30 30 29 29 30 30 30 30 30 31 31 30 31 31
28 28 28 28 28 28 26 26 25 26 25 25 24 25 25 25 27 27 28 28 29 29 29 30 30 30 30 30 30 30 31 31 32 32 31 32 32 33
27 27 27 27 27 27 26 26 25 25 25 25 24 25 24 24 25 27 27 28 28 29 29 30 30 30 30 30 30 30 30 31 31 32 33 33 33 33
27 26 26 26 26 26 25 25 25 25 25 25 25 24 24 24 25 26 27 27 28 29 29 30 30 30 31 31 31 30 31 31 32 32 33 34 34 34
25 25 25 24 24 25 26 26 25 25 25 25 24 23 23 24 25 26 27 27 28 29 30 31 31 31 31 31 31 31 31 31 31 32 32 33 34 35
24 24 24 24 24 25 25 26 26 25 25 24 24 23 23 24 24 24 25 26 26 27 28 29 30 30 30 31 31 31 32 31 31 32 33 33 34 35
23 22 23 24 23 24 24 24 25 25 25 24 24 24 23 23 23 23 24 24 25 26 27 28 28 29 30 30 31 31 31 31 31 32 33 34 34 35
22 22 23 23 22 22 23 23 23 24 24 24 24 23 22 22 22 22 23 24 24 25 27 28 29 29 29 29 30 31 31 31 32 32 33 34 35 36
20 21 22 23 22 23 23 23 23 23 23 23 23 22 21 22 22 23 23 23 24 26 27 28 28 28 28 29 29 30 31 32 32 33 34 34 36 37
19 20 20 21 22 23 23 23 23 22 22 23 23 23 23 22 22 23 24 24 24 25 26 27 27 27 28 28 29 30 31 32 32 33 34 35 35 36
19 19 19 19 20 21 22 22 23 23 23 23 23 23 23 23 24 25 25 24 24 24 24 25 26 27 27 28 29 30 31 32 32 32 32 32 33 33
18 18 19 19 19 21 22 23 23 24 24 24 24 25 25 25 25 25 25 24 23 23 24 25 25 26 28 28 29 30 30 30 30 30 30 30 30 30
18 18 18 18 19 19 20 21 23 23 23 23 24 24 24 24 24 24 23 23 23 23 24 25 25 25 26 27 28 28 28 28 28 27 27 28 29 29
17 17 17 17 17 18 19 20 21 22 22 22 22 22 23 23 24 24 24 23 23 24 24 24 25 25 25 25 26 25 25 26 26 26 27 27 28 28
17 17 16 16 16 17 18 19 19 19 20 20 21 21 22 22 22 23 24 23 23 23 23 23 24 24 24 24 23 23 23 24 24 25 26 26 27 27
16 15 14 14 15 15 16 17 18 19 20 20 20 21 21 21 22 23 23 23 22 22 22 22 22 22 22 22 21 22 23 24 25 25 26 25 25 25
15 14 14 14 15 16 17 17 18 18 19 20 20 21 21 22 22 23 23 22 22 22 22 22 21 21 20 21 22 22 23 23 24 24 25 25 24 24
14 14 14 15 16 17 17 17 18 18 18 19 19 20 21 21 22 22 22 23 22 22 21 21 21 21 21 21 21 21 22 22 23 23 23 24 24 24
15 15 15 15 16 16 17 17 18 18 18 18 19 20 20 21 21 22 22 22 23 22 22 22 22 22 21 21 21 21 21 22 22 22 22 23 23 23
14 14 14 14 14 15 16 16 17 17 17 18 19 20 20 21 21 21 22 22 22 22 22 22 22 21 21 21 21 21 21 21 22 22 22 22 22 21
14 14 14 14 14 15 16 16 16 16 16 17 18 18 19 19 20 20 21 21 21 22 22 22 21 21 20 20 20 20 20 20 21 21 21 21 21 19
15 14 13 13 14 14 14 15 15 15 16 16 16 17 18 18 19 20 20 20 20 20 20 20 20 20 20 19 20 19 19 20 20 20 20 19 19 18
Wind_Direction
271 271 270 269 268 267 266 265 263 260 258 255 253 252 252 251 250 251 250 249 249 249 248 249 251 252 252 254 254 254 254 255 257 259 259 260 260 261
270 270 269 269 267 266 265 264 260 257 255 254 252 250 249 249 249 250 249 248 249 249 249 250 251 252 253 254 255 255 255 256 257 259 260 261 261 262
270 270 269 268 267 266 264 263 261 257 255 254 252 250 251 249 250 250 249 249 249 250 251 252 253 254 255 256 256 256 257 257 258 259 260 261 262 263
270 270 268 267 266 263 262 262 261 260 256 253 254 255 254 252 251 251 251 250 250 250 251 252 254 255 255 257 258 257 258 259 259 260 261 262 263 263
271 270 268 265 263 259 259 260 260 259 259 256 256 255 253 252 251 252 251 250 250 250 251 253 254 255 256 257 258 258 258 259 260 262 263 263 264 264
271 269 267 265 262 260 259 259 258 257 257 258 256 254 253 253 255 254 251 250 250 250 252 253 254 255 257 258 258 258 259 260 262 263 263 264 265 267
271 267 264 265 262 261 261 259 257 256 257 258 254 255 254 255 257 255 251 250 250 252 253 254 255 255 257 258 258 259 261 262 263 264 265 266 268 269
269 265 264 265 262 261 261 259 257 256 255 255 254 256 258 258 257 255 252 251 252 253 255 256 256 256 258 259 260 262 263 263 264 266 266 267 269 270
270 267 266 265 260 258 259 258 257 255 254 254 254 256 258 256 255 255 255 255 255 256 257 256 256 258 259 260 261 263 264 265 266 268 269 268 269 270
272 270 267 265 260 258 259 259 258 257 255 253 253 254 255 254 255 255 255 257 258 260 258 256 257 258 260 262 264 265 266 268 268 269 270 271 272 272
275 274 270 265 260 258 259 259 258 257 255 254 254 255 257 256 256 257 257 260 259 258 259 258 258 259 262 264 265 267 268 270 271 271 272 272 274 275
274 275 273 269 263 259 258 257 257 257 256 255 255 256 257 258 258 258 260 261 259 258 258 260 260 261 263 264 266 267 269 271 272 273 273 275 275 275
277 277 276 272 266 261 259 257 255 256 257 256 255 255 258 260 259 260 261 260 259 261 261 262 263 264 265 265 266 268 270 271 272 273 275 276 276 277
279 279 277 273 268 261 258 256 255 256 258 258 257 257 258 260 259 261 260 260 261 263 264 264 265 266 268 268 267 267 268 269 272 275 277 279 278 278
280 279 278 273 267 262 258 256 256 257 258 259 258 257 258 259 260 260 261 261 261 262 265 265 267 269 271 271 269 267 268 270 272 277 279 279 279 280
283 279 277 274 270 264 260 257 257 257 258 258 258 258 259 260 261 262 262 261 262 263 264 267 269 272 273 273 271 270 272 272 274 277 279 281 282 284
287 283 280 275 271 266 261 259 259 260 259 258 258 259 259 260 261 262 263 262 263 263 265 268 272 275 275 274 273 273 273 274 276 278 280 280 281 283
295 290 284 277 273 269 265 263 263 264 262 259 260 260 260 261 261 262 263 264 265 265 264 267 270 272 273 275 275 275 275 276 278 279 281 281 281 282
294 289 288 283 276 272 270 268 267 265 264 263 261 261 262 262 260 261 264 266 266 265 264 265 268 271 272 274 277 278 278 277 279 280 281 281 280 279
293 290 286 281 279 275 273 272 270 267 265 266 267 266 264 262 260 262 265 265 267 265 264 266 270 273 274 275 277 279 281 280 279 280 281 281 280 280
297 295 290 284 282 279 277 274 272 270 269 270 271 269 265 263 261 263 265 265 265 263 265 268 270 272 272 273 276 278 280 281 281 280 281 282 282 282
300 300 296 290 287 285 282 279 276 273 271 271 272 269 267 265 263 262 262 264 264 265 266 267 269 271 272 273 276 278 280 281 283 282 280 279 280 282
301 300 296 294 291 288 284 281 279 276 276 276 274 271 268 266 263 262 263 263 265 268 267 266 267 269 270 273 277 280 282 283 283 281 280 280 279 280
Height
5751 5751 5751 5751 5751 5751 5751 5751 5752 5752 5753 5754 5755 5757 5758 5760 5761 5763 5765 5767 5769 5771 5773 5775 5777 5778 5780 5781 5782 5783 5785 5786 5787 5788 5789 5790 5791 5792
5742 5742 5742 5742 5742 5742 5742 5742 5743 5744 5745 5746 5747 5748 5749 5751 5753 5755 5757 5759 5761 5763 5765 5767 5768 5770 5771 5773 5774 5775 5776 5778 5779 5780 5781 5782 5783 5783
5734 5733 5733 5733 5734 5734 5734 5734 5734 5735 5737 5738 5738 5740 5741 5743 5744 5746 5748 5751 5753 5755 5757 5758 5760 5762 5763 5764 5766 5767 5768 5769 5770 5771 5772 5773 5774 5774
5725 5725 5725 5725 5725 5725 5726 5726 5727 5728 5729 5730 5731 5732 5733 5735 5736 5738 5740 5742 5744 5746 5748 5750 5751 5753 5754 5756 5757 5758 5759 5760 5762 5763 5763 5764 5764 5765
5716 5716 5716 5717 5717 5717 5718 5719 5719 5720 5721 5722 5723 5724 5726 5727 5729 5730 5732 5734 5736 5738 5739 5741 5743 5744 5746 5747 5748 5749 5750 5752 5753 5753 5754 5754 5755 5755
5708 5708 5708 5708 5709 5709 5710 5711 5711 5712 5713 5714 5716 5717 5718 5720 5721 5723 5724 5726 5728 5729 5731 5732 5734 5735 5737 5738 5739 5740 5741 5742 5743 5744 5744 5744 5744 5744
5700 5700 5700 5700 5701 5701 5702 5703 5704 5705 5706 5707 5709 5710 5711 5712 5714 5715 5716 5718 5719 5721 5722 5724 5725 5727 5728 5729 5730 5731 5732 5733 5733 5734 5734 5734 5734 5733
5693 5692 5692 5693 5693 5694 5695 5695 5696 5697 5699 5700 5701 5703 5704 5705 5706 5707 5709 5710 5712 5714 5714 5716 5716 5718 5719 5720 5721 5722 5722 5723 5723 5724 5724 5723 5723 5722
5686 5686 5685 5685 5686 5687 5687 5688 5689 5690 5692 5693 5694 5696 5697 5698 5699 5700 5701 5703 5704 5705 5706 5707 5708 5709 5710 5711 5712 5713 5713 5713 5714 5713 5713 5713 5712 5711
5679 5678 5678 5678 5679 5680 5680 5681 5683 5684 5685 5686 5688 5689 5690 5691 5692 5693 5694 5695 5696 5697 5697 5699 5699 5700 5701 5702 5702 5703 5703 5703 5703 5703 5702 5701 5700 5698
5673 5672 5671 5671 5672 5672 5674 5675 5676 5677 5678 5679 5681 5682 5683 5684 5685 5686 5687 5688 5688 5689 5689 5690 5691 5692 5693 5693 5693 5693 5693 5693 5692 5692 5691 5690 5688 5686
5666 5665 5664 5664 5664 5665 5666 5668 5669 5670 5671 5673 5674 5676 5676 5677 5678 5679 5679 5679 5680 5681 5682 5683 5683 5684 5684 5684 5684 5683 5683 5682 5681 5680 5679 5678 5676 5674
5660 5659 5658 5657 5657 5658 5659 5660 5661 5663 5664 5665 5667 5668 5669 5669 5670 5671 5671 5672 5673 5674 5675 5675 5675 5675 5675 5676 5675 5674 5673 5672 5671 5670 5669 5667 5666 5664
5654 5653 5652 5651 5651 5651 5651 5652 5654 5655 5656 5658 5659 5660 5661 5662 5663 5663 5664 5664 5665 5666 5666 5666 5667 5667 5666 5666 5666 5665 5664 5663 5662 5661 5660 5658 5656 5654
5648 5647 5646 5645 5644 5644 5645 5645 5646 5648 5649 5650 5651 5653 5653 5654 5655 5656 5656 5657 5658 5658 5658 5658 5658 5658 5658 5657 5657 5656 5656 5655 5654 5653 5651 5649 5647 5645
5642 5641 5640 5639 5638 5638 5638 5639 5640 5641 5642 5643 5644 5645 5646 5647 5648 5648 5649 5649 5650 5651 5651 5651 5651 5650 5650 5649 5648 5648 5648 5647 5646 5644 5643 5641 5638 5636
5637 5635 5634 5634 5633 5633 5633 5633 5634 5634 5635 5636 5637 5638 5639 5640 5641 5641 5642 5642 5642 5643 5644 5644 5643 5642 5642 5641 5641 5640 5639 5639 5638 5636 5635 5633 5631 5629
5632 5630 5629 5628 5628 5628 5627 5628 5628 5628 5628 5629 5630 5631 5632 5633 5633 5634 5634 5635 5635 5635 5636 5636 5636 5636 5635 5634 5634 5633 5632 5631 5630 5628 5626 5625 5623 5621
5628 5626 5625 5624 5623 5622 5622 5622 5622 5622 5622 5622 5623 5624 5624 5625 5625 5626 5627 5627 5627 5628 5629 5629 5629 5628 5628 5628 5627 5626 5625 5623 5622 5621 5619 5617 5616 5614
5623 5621 5620 5619 5617 5616 5616 5616 5616 5616 5616 5616 5616 5616 5617 5617 5618 5619 5620 5620 5620 5621 5621 5621 5621 5621 5621 5620 5620 5619 5617 5616 5615 5613 5612 5610 5608 5607
5618 5617 5615 5613 5612 5611 5610 5610 5609 5609 5609 5609 5610 5610 5610 5610 5610 5611 5612 5613 5613 5613 5614 5614 5614 5613 5613 5613 5612 5611 5610 5609 5607 5606 5604 5603 5602 5600
5614 5612 5610 5609 5608 5606 5605 5604 5603 5603 5603 5603 5603 5603 5603 5603 5603 5604 5605 5605 5606 5606 5606 5606 5606 5606 5606 5606 5605 5604 5603 5602 5600 5598 5597 5596 5595 5594
5610 5608 5606 5604 5603 5601 5600 5599 5598 5598 5597 5597 5597 5597 5596 5596 5597 5597 5598 5598 5598 5598 5599 5599 5599 5599 5599 5599 5598 5597 5596 5595 5593 5592 5591 5589 5589 5588